Total_Precipitation_Accumulation
1.63 1.67 1.74 1.72 1.71 1.75 1.68 1.63 1.68 1.85 1.88 1.83 1.81 1.81 1.81 1.77 1.81 1.84 1.67 1.81 1.95 2.00 2.03 2.18 2.24 2.36 2.42 2.43 2.54 2.67 2.94 3.17 2.84 2.29 2.17 2.16 2.29 2.27 2.18 1.93 1.70 1.61 1.44
1.66 1.80 1.92 1.98 2.01 1.95 1.76 1.65 1.71 1.81 1.86 1.88 1.87 1.83 1.72 1.74 1.92 1.98 1.87 1.95 2.03 2.01 2.05 2.21 2.12 2.28 2.46 2.41 2.52 2.53 2.64 2.98 2.86 2.58 2.52 2.46 2.44 2.34 2.34 2.17 1.84 1.66 1.58
1.88 2.08 2.29 2.39 2.25 2.07 1.96 1.85 1.87 1.89 1.93 2.00 2.01 2.01 1.98 2.00 2.02 2.09 2.18 2.15 2.08 1.99 2.05 2.06 2.03 2.23 2.23 2.32 2.45 2.43 2.43 2.60 2.77 2.70 2.65 2.73 2.69 2.57 2.49 2.32 2.14 2.07 1.76
1.63 1.91 2.15 2.28 2.14 2.06 2.06 1.92 1.86 1.89 1.98 2.08 2.09 2.21 2.36 2.41 2.40 2.35 2.26 2.18 2.12 2.08 2.05 2.01 1.97 2.00 2.03 2.11 2.24 2.35 2.44 2.57 2.71 2.75 2.79 2.90 2.87 2.91 2.89 2.67 2.53 2.44 2.10
1.45 1.58 1.82 2.09 1.95 1.71 1.68 1.66 1.61 1.70 1.83 2.13 2.28 2.36 2.63 2.76 2.57 2.57 2.49 2.38 2.37 2.20 2.08 1.99 1.86 1.88 1.94 1.96 1.92 2.04 2.20 2.35 2.40 2.49 2.60 2.81 2.87 2.97 2.95 2.80 2.66 2.65 2.46
1.35 1.49 1.66 1.78 1.64 1.49 1.38 1.41 1.44 1.54 1.72 1.89 2.04 2.16 2.21 2.06 2.20 2.21 2.19 2.24 2.27 2.17 2.10 2.04 1.89 1.79 1.76 1.71 1.62 1.64 1.74 1.87 2.07 2.30 2.38 2.58 2.77 2.93 3.13 3.17 3.00 2.81 2.67
1.33 1.37 1.51 1.62 1.62 1.52 1.35 1.36 1.42 1.52 1.67 1.76 1.81 1.87 1.84 1.90 1.93 1.71 1.65 1.63 1.80 1.92 1.98 1.97 1.74 1.58 1.66 1.59 1.61 1.57 1.57 1.69 1.81 2.05 2.23 2.32 2.56 2.76 3.01 3.15 3.14 3.02 2.82
1.37 1.44 1.61 1.77 1.78 1.70 1.63 1.59 1.68 1.75 1.75 1.74 1.79 1.83 1.91 1.89 1.79 1.56 1.53 1.49 1.63 1.75 1.81 1.84 1.81 1.73 1.72 1.76 1.67 1.55 1.47 1.55 1.65 1.62 1.67 1.84 2.12 2.49 2.67 2.71 2.87 2.89 2.75
1.59 1.63 1.70 1.84 1.88 1.90 1.98 2.03 2.09 2.09 1.96 1.92 1.99 2.02 1.99 1.91 1.79 1.59 1.58 1.53 1.64 1.67 1.67 1.67 1.69 1.64 1.73 1.60 1.50 1.49 1.48 1.51 1.50 1.47 1.42 1.46 1.62 1.84 2.18 2.34 2.44 2.40 2.30
1.69 1.84 1.87 2.02 2.13 2.10 2.21 2.35 2.47 2.50 2.39 2.41 2.30 2.15 2.02 1.91 1.89 1.61 1.52 1.46 1.54 1.61 1.68 1.63 1.57 1.44 1.43 1.38 1.35 1.47 1.46 1.45 1.48 1.41 1.31 1.24 1.20 1.36 1.69 1.87 1.97 2.01 1.91
1.84 1.91 1.99 2.16 2.33 2.48 2.67 2.83 2.83 2.78 2.79 2.71 2.45 2.32 2.28 2.20 2.02 1.58 1.41 1.34 1.41 1.57 1.63 1.61 1.51 1.45 1.27 1.23 1.21 1.24 1.27 1.24 1.32 1.37 1.34 1.30 1.31 1.32 1.37 1.52 1.74 1.88 1.85
1.97 2.08 2.23 2.34 2.39 2.51 2.84 2.95 2.93 2.88 2.75 2.57 2.41 2.21 2.10 2.04 1.85 1.58 1.39 1.39 1.49 1.56 1.59 1.54 1.53 1.42 1.20 1.13 1.05 1.05 1.06 1.00 1.03 1.16 1.15 1.12 1.12 1.13 1.19 1.34 1.56 1.72 1.80
1.97 2.16 2.33 2.45 2.65 2.84 2.96 2.90 2.79 2.74 2.63 2.48 2.35 2.15 2.11 2.18 2.08 1.74 1.53 1.51 1.51 1.44 1.43 1.48 1.41 1.27 1.07 0.92 0.91 0.89 0.82 0.80 0.90 1.01 1.03 0.98 0.95 1.00 1.10 1.26 1.42 1.59 1.63
1.84 2.00 2.14 2.22 2.29 2.41 2.58 2.51 2.37 2.35 2.39 2.38 2.34 2.22 2.16 2.14 2.09 1.84 1.60 1.57 1.53 1.46 1.39 1.35 1.22 1.15 1.00 0.90 0.91 0.84 0.76 0.83 0.93 0.97 1.02 1.03 1.00 1.02 1.05 1.12 1.23 1.36 1.46
1.65 1.73 1.78 1.83 1.92 2.01 2.08 2.14 2.09 2.08 2.05 2.05 2.05 2.03 1.91 1.85 1.89 1.74 1.56 1.60 1.66 1.66 1.58 1.48 1.35 1.25 1.11 1.01 1.00 1.02 1.03 1.09 1.09 1.07 1.12 1.17 1.14 1.07 1.05 1.08 1.22 1.28 1.26
1.68 1.63 1.61 1.66 1.72 1.73 1.79 1.81 1.80 1.69 1.60 1.51 1.44 1.40 1.35 1.38 1.49 1.40 1.32 1.39 1.49 1.56 1.46 1.37 1.33 1.25 1.17 1.17 1.20 1.22 1.21 1.23 1.20 1.20 1.22 1.24 1.24 1.15 1.07 1.07 1.18 1.27 1.23
1.80 1.68 1.61 1.54 1.55 1.58 1.61 1.68 1.71 1.60 1.42 1.27 1.15 1.06 1.00 1.06 1.14 1.14 1.15 1.25 1.37 1.45 1.38 1.38 1.34 1.32 1.26 1.24 1.27 1.27 1.23 1.22 1.26 1.27 1.28 1.29 1.34 1.35 1.31 1.26 1.25 1.33 1.34
1.91 1.79 1.64 1.53 1.48 1.49 1.52 1.55 1.63 1.72 1.60 1.39 1.17 0.97 0.88 0.86 0.90 0.99 1.10 1.21 1.31 1.32 1.29 1.33 1.32 1.30 1.28 1.27 1.25 1.28 1.28 1.30 1.29 1.28 1.33 1.37 1.44 1.47 1.50 1.44 1.38 1.37 1.40
1.70 1.63 1.54 1.48 1.47 1.47 1.50 1.50 1.48 1.52 1.51 1.45 1.30 1.12 0.99 0.91 0.90 0.97 1.00 1.03 1.20 1.27 1.27 1.25 1.22 1.18 1.17 1.20 1.19 1.18 1.18 1.20 1.23 1.30 1.30 1.32 1.40 1.41 1.39 1.36 1.37 1.39 1.40
1.71 1.67 1.53 1.47 1.51 1.53 1.52 1.52 1.48 1.54 1.53 1.50 1.38 1.19 1.07 0.95 0.90 0.94 0.96 1.07 1.24 1.27 1.24 1.21 1.20 1.18 1.18 1.19 1.20 1.19 1.18 1.19 1.24 1.33 1.35 1.36 1.41 1.39 1.34 1.34 1.40 1.43 1.40
1.71 1.66 1.56 1.47 1.46 1.53 1.55 1.51 1.46 1.48 1.47 1.50 1.39 1.20 1.11 0.97 0.97 1.02 1.08 1.18 1.27 1.24 1.23 1.20 1.18 1.12 1.11 1.12 1.13 1.15 1.18 1.24 1.27 1.33 1.38 1.40 1.43 1.40 1.36 1.39 1.45 1.50 1.52
1.68 1.62 1.49 1.32 1.30 1.35 1.39 1.41 1.42 1.41 1.44 1.48 1.41 1.21 1.11 0.95 0.99 1.08 1.12 1.20 1.24 1.23 1.19 1.16 1.09 1.01 1.00 1.03 1.07 1.16 1.20 1.23 1.28 1.35 1.38 1.39 1.44 1.41 1.43 1.47 1.49 1.55 1.62
1.55 1.47 1.34 1.17 1.15 1.26 1.33 1.38 1.38 1.34 1.33 1.34 1.25 1.13 1.06 1.02 1.01 1.06 1.12 1.14 1.16 1.18 1.15 1.08 1.03 0.99 0.99 1.01 1.05 1.11 1.17 1.21 1.21 1.24 1.30 1.34 1.40 1.44 1.50 1.51 1.50 1.56 1.61
1.44 1.39 1.34 1.18 1.13 1.27 1.37 1.45 1.40 1.31 1.29 1.25 1.14 1.10 1.07 1.09 1.07 1.05 1.06 1.09 1.10 1.09 1.08 1.06 0.99 0.93 0.93 0.98 1.04 1.05 1.08 1.10 1.09 1.15 1.19 1.28 1.35 1.40 1.45 1.46 1.46 1.48 1.52
1.38 1.37 1.40 1.30 1.23 1.26 1.31 1.35 1.31 1.22 1.17 1.13 1.10 1.12 1.12 1.10 1.10 1.11 1.11 1.13 1.10 1.05 1.00 0.97 1.00 0.99 0.97 0.97 0.99 0.99 1.02 0.95 0.91 0.93 0.98 1.09 1.16 1.26 1.32 1.33 1.36 1.42 1.46
1.31 1.33 1.41 1.38 1.32 1.36 1.41 1.42 1.40 1.32 1.27 1.20 1.16 1.15 1.17 1.18 1.18 1.17 1.15 1.12 1.09 1.06 1.02 0.99 0.97 0.95 0.95 0.92 0.87 0.88 0.84 0.76 0.75 0.82 0.85 0.91 1.01 1.12 1.16 1.15 1.13 1.20 1.28